Regional Weather Roundup
Issued by NWS Green Bay, WI

Home | Current Version | Previous Version | Graphics & Text | Print | Product List | Glossary Off
Versions: 1 2 3 4 5 6 7 8 9 10 11 12 13 14 15 16 17 18 19 20 21 22 23 24 25 26 27 28 29 30 31 32 33 34 35 36 37 38 39 40 41 42 43 44 45 46 47 48 49 50

000
ASUS43 KGRB 020400
RWRGRB

NORTH-CENTRAL AND NORTHEAST WISCONSIN REGIONAL WEATHER ROUNDUP
NATIONAL WEATHER SERVICE GREEN BAY WI
1100 PM CDT TUE SEP 01 2015

WIZ005-009-010>012-018-019-020500-
NORTH CENTRAL WISCONSIN

CITY           SKY/WX    TMP DP  RH WIND       PRES   REMARKS
IRONWOOD       CLEAR     70  68  94 CALM      29.94S
MANITOWISH WTR NOT AVBL
ARBOR VITAE    NOT AVBL
EAGLE RIVER    NOT AVBL
LAND O LAKES   NOT AVBL
RHINELANDER    FOG       68  67  96 CALM      30.01S VSB 1/4
PHILLIPS       NOT AVBL
ANTIGO         NOT AVBL
TOMAHAWK       NOT AVBL
MERRILL        NOT AVBL
$$

WIZ013-073-020500-
NORTHEAST WISCONSIN

CITY           SKY/WX    TMP DP  RH WIND       PRES   REMARKS
IRON MOUNTAIN  MOCLDY    69  66  90 CALM      29.97R
MARINETTE      MOCLDY    73  66  78 SW5       29.95R
$$

WIZ017-030-035>037-045-020500-
CENTRAL WISCONSIN

CITY           SKY/WX    TMP DP  RH WIND       PRES   REMARKS
MEDFORD        NOT AVBL
WAUSAU         MOCLDY    74  71  91 CALM      29.97R
MOSINEE        NOT AVBL
MARSHFIELD     MOCLDY    73  69  87 S3        29.98S
WISC RAPIDS    PTCLDY    73  70  90 SW3       29.99R
STEVENS POINT  NOT AVBL
WAUPACA        NOT AVBL
SHAWANO        NOT AVBL
CLINTONVILLE   NOT AVBL
WAUTOMA        NOT AVBL
$$

WIZ038-039-048-051-020500-
FOX VALLEY

CITY           SKY/WX    TMP DP  RH WIND       PRES   REMARKS
NWS GREEN BAY  MOCLDY    74  70  87 S3        29.97R
APPLETON       MOCLDY    75  70  83 S7        29.96S
OSHKOSH        MOCLDY    75  71  87 S6        29.98R
FOND DU LAC    MOCLDY    74  71  91 S6        29.99R
$$

WIZ022-050-052-020500-
EAST CENTRAL WISCONSIN

CITY           SKY/WX    TMP DP  RH WIND       PRES   REMARKS
EPHRAIM        NOT AVBL
STURGEON BAY   MOCLDY    73  68  83 S7        29.99R
MANITOWOC      NOT AVBL
SHEBOYGAN      PTCLDY    70  69  97 CALM      29.99R FOG
$$

LMZ563-521-522-541>543-020500-
LAKESHORE

STATION/POSITION TIME  TEMP    WIND        PRES    VSBY  WAVE
                       AIR SEA DIR/SP/G                  HT/PER
                 (UTC) (F)     (DEG/KT/KT) (MB)    (MI)  (FT/S)
SHEBOYGAN LKSHOR 0300   66     180/  8/ 10 1015.3R
KEWAUNEE LKSHORE 0300   52     150/  2/  3 1013.7S
ALGOMA MARINA    0314             CALM       N/A
NORTHPORT PIER   0300   70     160/  3/  7 1014.2R
N MID LAKE BUOY  0250   67 65  210/ 12/ 14 1014.2R         2/ 4
CHAMBERS ISLAND  0300   74     170/  4/  8 1013.9S
MENOMINEE LKSHOR 0300   71     180/  7/  8 1013.0R
$$



USA.gov is the U.S. government's official web portal to all federal, state and local government web resources and services.